Location: Devore Heights
(34.2372°N, 117.4156°W)
Time: 12:32:04
(UTC+00:00)

Vanguard 1 Rocket - Pass Details

Date: 16 September 2024
Orbit: 650 x 4218 km, 34.3° (Epoch: 09 October)

Event Time Altitude Azimuth Distance (km) Brightness Sun altitude
Exits shadow 11:22:59 39° 238° (WSW) 3,339 9.7 -27.1°
Maximum altitude 11:30:40 79° 160° (SSE) 3,117 9.9 -25.6°
Drops below altitude 10° 11:55:17 10° 79° (E) 7,372 13.2 -20.8°
Sets 12:01:21 0° 79° (ENE) 8,466 13.9 -19.6°
